contact:dominique.lefevre@mio.osupytheas.fr, maurice.libes@osupytheas.fr, didier.mallarino@osupytheas.fr
Project:EMSO http://www.emso-fr.org/EMSO-France
Depth: 2436.0 m
Title:EMSO Ligure Ouest : Data MII capteur CSTAR
DateTime,Latitude,Longitude,Instrument_Serial,Reference_Counts,Signal_Counts,Corrected_Signal_raw_counts,Calculated_Beam_c_inverse_meters,Internal_thermistor_counts
DateTime,Latitude,Longitude,Instrument_Serial,Reference_Counts,Signal_Counts,Corrected_Signal_raw_counts,Calculated_Beam_c_inverse_meters,Internal_thermistor_counts
2020-03-19T00:02:54,42.805,6.029,CST-1368DR,6601,9256,15214,0.104,551
2020-03-19T00:05:56,42.805,6.029,CST-1368DR,6601,9258,15218,0.103,551
2020-03-19T00:08:58,42.805,6.029,CST-1368DR,6601,9257,15217,0.104,551
2020-03-19T00:11:59,42.805,6.029,CST-1368DR,6601,9256,15215,0.104,551
2020-03-19T00:15:01,42.805,6.029,CST-1368DR,6601,9257,15216,0.104,551
2020-03-19T00:18:03,42.805,6.029,CST-1368DR,6601,9258,15217,0.104,551
2020-03-19T00:21:04,42.805,6.029,CST-1368DR,6601,9256,15214,0.104,551
2020-03-19T00:24:06,42.805,6.029,CST-1368DR,6601,9257,15216,0.104,551
2020-03-19T00:27:08,42.805,6.029,CST-1368DR,6601,9257,15216,0.104,551
2020-03-19T00:30:10,42.805,6.029,CST-1368DR,6601,9257,15215,0.104,551
2020-03-19T00:33:11,42.805,6.029,CST-1368DR,6601,9258,15217,0.104,551
2020-03-19T00:36:13,42.805,6.029,CST-1368DR,6601,9257,15216,0.104,551
2020-03-19T00:39:15,42.805,6.029,CST-1368DR,6601,9257,15217,0.104,551
2020-03-19T00:42:16,42.805,6.029,CST-1368DR,6601,9257,15217,0.104,551
2020-03-19T00:45:18,42.805,6.029,CST-1368DR,6601,9256,15215,0.104,551
2020-03-19T00:48:20,42.805,6.029,CST-1368DR,6601,9257,15216,0.104,551
2020-03-19T00:51:22,42.805,6.029,CST-1368DR,6601,9257,15217,0.104,551
2020-03-19T00:54:23,42.805,6.029,CST-1368DR,6601,9258,15217,0.104,551
2020-03-19T00:57:25,42.805,6.029,CST-1368DR,6601,9257,15215,0.104,551
2020-03-19T01:00:27,42.805,6.029,CST-1368DR,6601,9257,15215,0.104,551
2020-03-19T01:03:28,42.805,6.029,CST-1368DR,6601,9254,15212,0.105,551
2020-03-19T01:06:30,42.805,6.029,CST-1368DR,6601,9256,15214,0.104,551
2020-03-19T01:09:32,42.805,6.029,CST-1368DR,6601,9256,15214,0.104,551
2020-03-19T01:12:33,42.805,6.029,CST-1368DR,6601,9258,15218,0.103,551
2020-03-19T01:15:35,42.805,6.029,CST-1368DR,6601,9255,15213,0.105,551
2020-03-19T01:18:37,42.805,6.029,CST-1368DR,6601,9258,15217,0.104,551
2020-03-19T01:21:38,42.805,6.029,CST-1368DR,6601,9257,15216,0.104,551
2020-03-19T01:24:40,42.805,6.029,CST-1368DR,6601,9257,15216,0.104,551
2020-03-19T01:27:42,42.805,6.029,CST-1368DR,6601,9257,15217,0.104,551
2020-03-19T01:30:43,42.805,6.029,CST-1368DR,6601,9256,15214,0.104,551
2020-03-19T01:33:45,42.805,6.029,CST-1368DR,6601,9257,15217,0.104,551
2020-03-19T01:36:47,42.805,6.029,CST-1368DR,6600,9256,15217,0.104,551
2020-03-19T01:39:49,42.805,6.029,CST-1368DR,6600,9257,15217,0.104,551
2020-03-19T01:42:51,42.805,6.029,CST-1368DR,6601,9258,15217,0.104,551
2020-03-19T01:45:52,42.805,6.029,CST-1368DR,6601,9257,15217,0.104,551
2020-03-19T01:48:54,42.805,6.029,CST-1368DR,6601,9257,15217,0.104,551
2020-03-19T01:51:56,42.805,6.029,CST-1368DR,6600,9258,15219,0.103,551
2020-03-19T01:54:58,42.805,6.029,CST-1368DR,6600,9257,15218,0.103,551
2020-03-19T01:57:59,42.805,6.029,CST-1368DR,6600,9257,15219,0.103,551
2020-03-19T02:01:01,42.805,6.029,CST-1368DR,6600,9256,15217,0.104,551
2020-03-19T02:04:03,42.805,6.029,CST-1368DR,6600,9256,15217,0.104,551
2020-03-19T02:07:05,42.805,6.029,CST-1368DR,6600,9257,15219,0.103,551
2020-03-19T02:10:06,42.805,6.029,CST-1368DR,6600,9258,15219,0.103,551
2020-03-19T02:13:08,42.805,6.029,CST-1368DR,6600,9258,15219,0.103,551
2020-03-19T02:16:10,42.805,6.029,CST-1368DR,6600,9257,15219,0.103,551
2020-03-19T02:19:11,42.805,6.029,CST-1368DR,6600,9256,15217,0.104,551
2020-03-19T02:22:13,42.805,6.029,CST-1368DR,6600,9256,15217,0.104,551
2020-03-19T02:25:15,42.805,6.029,CST-1368DR,6600,9257,15218,0.103,551
2020-03-19T02:28:17,42.805,6.029,CST-1368DR,6600,9258,15219,0.103,551
2020-03-19T02:31:18,42.805,6.029,CST-1368DR,6600,9257,15219,0.103,551
2020-03-19T02:34:20,42.805,6.029,CST-1368DR,6600,9257,15219,0.103,551
2020-03-19T02:37:22,42.805,6.029,CST-1368DR,6600,9256,15217,0.104,551
2020-03-19T02:40:24,42.805,6.029,CST-1368DR,6600,9256,15217,0.104,551
2020-03-19T02:43:25,42.805,6.029,CST-1368DR,6600,9255,15215,0.104,551
2020-03-19T02:46:27,42.805,6.029,CST-1368DR,6600,9254,15214,0.104,551
2020-03-19T02:49:29,42.805,6.029,CST-1368DR,6600,9257,15219,0.103,551
2020-03-19T02:52:31,42.805,6.029,CST-1368DR,6600,9255,15215,0.104,551
2020-03-19T02:55:32,42.805,6.029,CST-1368DR,6600,9256,15217,0.104,551
2020-03-19T02:58:34,42.805,6.029,CST-1368DR,6600,9256,15216,0.104,551
2020-03-19T03:01:36,42.805,6.029,CST-1368DR,6600,9254,15213,0.105,551
2020-03-19T03:04:38,42.805,6.029,CST-1368DR,6600,9256,15217,0.104,551
2020-03-19T03:07:39,42.805,6.029,CST-1368DR,6600,9257,15218,0.103,551
2020-03-19T03:10:41,42.805,6.029,CST-1368DR,6600,9255,15215,0.104,551
2020-03-19T03:13:43,42.805,6.029,CST-1368DR,6600,9257,15217,0.104,551
2020-03-19T03:16:45,42.805,6.029,CST-1368DR,6600,9256,15217,0.104,551
2020-03-19T03:19:46,42.805,6.029,CST-1368DR,6600,9257,15217,0.104,551
2020-03-19T03:22:48,42.805,6.029,CST-1368DR,6600,9256,15216,0.104,551
2020-03-19T03:25:50,42.805,6.029,CST-1368DR,6600,9256,15216,0.104,550
2020-03-19T03:28:52,42.805,6.029,CST-1368DR,6600,9255,15214,0.104,551
2020-03-19T03:31:53,42.805,6.029,CST-1368DR,6600,9255,15215,0.104,551
2020-03-19T03:34:55,42.805,6.029,CST-1368DR,6600,9255,15215,0.104,551
2020-03-19T03:37:57,42.805,6.029,CST-1368DR,6600,9256,15217,0.104,551
2020-03-19T03:40:58,42.805,6.029,CST-1368DR,6600,9256,15216,0.104,551
2020-03-19T03:44:00,42.805,6.029,CST-1368DR,6600,9255,15215,0.104,550
2020-03-19T03:47:02,42.805,6.029,CST-1368DR,6600,9255,15215,0.104,551
2020-03-19T03:50:03,42.805,6.029,CST-1368DR,6600,9253,15212,0.105,551
2020-03-19T03:53:05,42.805,6.029,CST-1368DR,6600,9255,15214,0.104,551
2020-03-19T03:56:07,42.805,6.029,CST-1368DR,6600,9255,15215,0.104,551
2020-03-19T03:59:08,42.805,6.029,CST-1368DR,6600,9256,15216,0.104,550
2020-03-19T04:02:10,42.805,6.029,CST-1368DR,6600,9255,15215,0.104,551
2020-03-19T04:05:12,42.805,6.029,CST-1368DR,6600,9253,15212,0.105,551
2020-03-19T04:08:14,42.805,6.029,CST-1368DR,6600,9254,15213,0.105,551
2020-03-19T04:11:15,42.805,6.029,CST-1368DR,6600,9255,15215,0.104,550
2020-03-19T04:14:17,42.805,6.029,CST-1368DR,6600,9255,15214,0.104,551
2020-03-19T04:17:19,42.805,6.029,CST-1368DR,6600,9256,15216,0.104,551
2020-03-19T04:20:20,42.805,6.029,CST-1368DR,6600,9256,15216,0.104,551
2020-03-19T04:23:22,42.805,6.029,CST-1368DR,6600,9256,15216,0.104,551
2020-03-19T04:26:24,42.805,6.029,CST-1368DR,6600,9254,15213,0.105,551
2020-03-19T04:29:25,42.805,6.029,CST-1368DR,6600,9254,15214,0.104,551
2020-03-19T04:32:27,42.805,6.029,CST-1368DR,6600,9254,15214,0.104,551
2020-03-19T04:35:29,42.805,6.029,CST-1368DR,6600,9255,15215,0.104,551
2020-03-19T04:38:30,42.805,6.029,CST-1368DR,6600,9255,15215,0.104,551
2020-03-19T04:41:32,42.805,6.029,CST-1368DR,6600,9255,15215,0.104,551
2020-03-19T04:44:34,42.805,6.029,CST-1368DR,6600,9255,15215,0.104,551
2020-03-19T04:47:36,42.805,6.029,CST-1368DR,6600,9255,15214,0.104,551
2020-03-19T04:50:37,42.805,6.029,CST-1368DR,6600,9256,15216,0.104,551
2020-03-19T04:53:39,42.805,6.029,CST-1368DR,6600,9255,15215,0.104,551
2020-03-19T04:56:41,42.805,6.029,CST-1368DR,6600,9255,15214,0.104,551
2020-03-19T04:59:42,42.805,6.029,CST-1368DR,6600,9255,15215,0.104,551
2020-03-19T05:02:44,42.805,6.029,CST-1368DR,6600,9255,15215,0.104,551
2020-03-19T05:05:46,42.805,6.029,CST-1368DR,6600,9255,15215,0.104,551
2020-03-19T05:08:48,42.805,6.029,CST-1368DR,6600,9254,15213,0.105,550
2020-03-19T05:11:49,42.805,6.029,CST-1368DR,6600,9253,15212,0.105,551
2020-03-19T05:14:51,42.805,6.029,CST-1368DR,6600,9256,15216,0.104,551
2020-03-19T05:17:53,42.805,6.029,CST-1368DR,6600,9255,15215,0.104,551
2020-03-19T05:20:54,42.805,6.029,CST-1368DR,6600,9256,15216,0.104,551
2020-03-19T05:23:56,42.805,6.029,CST-1368DR,6600,9255,15215,0.104,551
2020-03-19T05:26:58,42.805,6.029,CST-1368DR,6600,9253,15212,0.105,551
2020-03-19T05:29:59,42.805,6.029,CST-1368DR,6600,9255,15215,0.104,551
2020-03-19T05:33:01,42.805,6.029,CST-1368DR,6600,9255,15215,0.104,551
2020-03-19T05:36:03,42.805,6.029,CST-1368DR,6600,9255,15215,0.104,551
2020-03-19T05:39:04,42.805,6.029,CST-1368DR,6600,9255,15215,0.104,551
2020-03-19T05:42:06,42.805,6.029,CST-1368DR,6600,9253,15212,0.105,551
2020-03-19T05:45:08,42.805,6.029,CST-1368DR,6600,9248,15204,0.107,551
2020-03-19T05:48:10,42.805,6.029,CST-1368DR,6600,9253,15211,0.105,551
2020-03-19T05:51:11,42.805,6.029,CST-1368DR,6600,9255,15215,0.104,551
2020-03-19T05:54:13,42.805,6.029,CST-1368DR,6600,9253,15212,0.105,551
2020-03-19T05:57:15,42.805,6.029,CST-1368DR,6600,9255,15215,0.104,551
2020-03-19T06:00:16,42.805,6.029,CST-1368DR,6600,9253,15212,0.105,551
2020-03-19T06:03:18,42.805,6.029,CST-1368DR,6600,9255,15215,0.104,551
2020-03-19T06:06:20,42.805,6.029,CST-1368DR,6600,9254,15214,0.104,551
2020-03-19T06:09:21,42.805,6.029,CST-1368DR,6600,9256,15216,0.104,551
2020-03-19T06:12:23,42.805,6.029,CST-1368DR,6600,9253,15211,0.105,551
2020-03-19T06:15:25,42.805,6.029,CST-1368DR,6599,9255,15218,0.103,551
2020-03-19T06:18:27,42.805,6.029,CST-1368DR,6600,9255,15215,0.104,551
2020-03-19T06:21:28,42.805,6.029,CST-1368DR,6600,9254,15214,0.104,551
2020-03-19T06:24:30,42.805,6.029,CST-1368DR,6599,9255,15216,0.104,551
2020-03-19T06:27:32,42.805,6.029,CST-1368DR,6600,9254,15213,0.105,551
2020-03-19T06:30:33,42.805,6.029,CST-1368DR,6599,9250,15208,0.106,551
2020-03-19T06:33:35,42.805,6.029,CST-1368DR,6600,9255,15215,0.104,550
2020-03-19T06:36:37,42.805,6.029,CST-1368DR,6600,9254,15213,0.105,551
2020-03-19T06:39:38,42.805,6.029,CST-1368DR,6599,9255,15217,0.104,551
2020-03-19T06:42:40,42.805,6.029,CST-1368DR,6599,9253,15214,0.104,551
2020-03-19T06:45:42,42.805,6.029,CST-1368DR,6599,9252,15212,0.105,551
2020-03-19T06:48:43,42.805,6.029,CST-1368DR,6599,9255,15217,0.104,551
2020-03-19T06:51:45,42.805,6.029,CST-1368DR,6599,9255,15216,0.104,551
2020-03-19T06:54:47,42.805,6.029,CST-1368DR,6599,9254,15216,0.104,551
2020-03-19T06:57:49,42.805,6.029,CST-1368DR,6599,9253,15213,0.105,551
2020-03-19T07:00:51,42.805,6.029,CST-1368DR,6599,9255,15216,0.104,551
2020-03-19T07:03:52,42.805,6.029,CST-1368DR,6599,9254,15216,0.104,551
2020-03-19T07:06:54,42.805,6.029,CST-1368DR,6599,9254,15216,0.104,551
2020-03-19T07:09:56,42.805,6.029,CST-1368DR,6600,9254,15213,0.105,551
2020-03-19T07:12:58,42.805,6.029,CST-1368DR,6599,9254,15216,0.104,551
2020-03-19T07:15:59,42.805,6.029,CST-1368DR,6599,9255,15217,0.104,551
2020-03-19T07:19:01,42.805,6.029,CST-1368DR,6599,9255,15216,0.104,551
2020-03-19T07:22:03,42.805,6.029,CST-1368DR,6599,9253,15214,0.104,551
2020-03-19T07:25:05,42.805,6.029,CST-1368DR,6599,9254,15216,0.104,551
2020-03-19T07:28:06,42.805,6.029,CST-1368DR,6599,9255,15216,0.104,551
2020-03-19T07:31:08,42.805,6.029,CST-1368DR,6599,9254,15215,0.104,551
2020-03-19T07:34:10,42.805,6.029,CST-1368DR,6599,9252,15211,0.105,551
2020-03-19T07:37:12,42.805,6.029,CST-1368DR,6599,9251,15211,0.105,551
2020-03-19T07:40:13,42.805,6.029,CST-1368DR,6599,9253,15214,0.104,551
2020-03-19T07:43:15,42.805,6.029,CST-1368DR,6599,9253,15213,0.105,551
2020-03-19T07:46:17,42.805,6.029,CST-1368DR,6599,9251,15211,0.105,551
2020-03-19T07:49:18,42.805,6.029,CST-1368DR,6599,9253,15213,0.105,551
2020-03-19T07:52:20,42.805,6.029,CST-1368DR,6599,9253,15213,0.105,551
2020-03-19T07:55:22,42.805,6.029,CST-1368DR,6599,9253,15214,0.104,551
2020-03-19T07:58:23,42.805,6.029,CST-1368DR,6599,9251,15211,0.105,551
2020-03-19T08:01:25,42.805,6.029,CST-1368DR,6599,9254,15215,0.104,551
2020-03-19T08:04:27,42.805,6.029,CST-1368DR,6599,9255,15216,0.104,551
2020-03-19T08:07:28,42.805,6.029,CST-1368DR,6599,9253,15214,0.104,551
2020-03-19T08:10:30,42.805,6.029,CST-1368DR,6599,9253,15214,0.104,551
2020-03-19T08:13:32,42.805,6.029,CST-1368DR,6599,9254,15216,0.104,551
2020-03-19T08:16:34,42.805,6.029,CST-1368DR,6599,9254,15216,0.104,551
2020-03-19T08:19:35,42.805,6.029,CST-1368DR,6599,9252,15213,0.105,551
2020-03-19T08:22:37,42.805,6.029,CST-1368DR,6599,9253,15214,0.104,551
2020-03-19T08:25:39,42.805,6.029,CST-1368DR,6599,9254,15216,0.104,551
2020-03-19T08:28:40,42.805,6.029,CST-1368DR,6599,9254,15215,0.104,551
2020-03-19T08:31:42,42.805,6.029,CST-1368DR,6599,9253,15213,0.105,551
2020-03-19T08:34:44,42.805,6.029,CST-1368DR,6599,9252,15212,0.105,551
2020-03-19T08:37:45,42.805,6.029,CST-1368DR,6599,9253,15213,0.105,551
2020-03-19T08:40:47,42.805,6.029,CST-1368DR,6599,9253,15214,0.104,551
2020-03-19T08:43:49,42.805,6.029,CST-1368DR,6599,9253,15214,0.104,551
2020-03-19T08:46:51,42.805,6.029,CST-1368DR,6599,9253,15214,0.104,551
2020-03-19T08:49:52,42.805,6.029,CST-1368DR,6599,9252,15213,0.105,551
2020-03-19T08:52:54,42.805,6.029,CST-1368DR,6599,9252,15211,0.105,551
2020-03-19T08:55:56,42.805,6.029,CST-1368DR,6599,9250,15209,0.106,551
2020-03-19T08:58:57,42.805,6.029,CST-1368DR,6599,9253,15213,0.105,551
2020-03-19T09:01:59,42.805,6.029,CST-1368DR,6599,9253,15214,0.104,551
2020-03-19T09:05:01,42.805,6.029,CST-1368DR,6599,9254,15216,0.104,551
2020-03-19T09:08:02,42.805,6.029,CST-1368DR,6599,9253,15214,0.104,551
2020-03-19T09:11:04,42.805,6.029,CST-1368DR,6599,9252,15213,0.105,551
2020-03-19T09:14:06,42.805,6.029,CST-1368DR,6599,9251,15211,0.105,551
2020-03-19T09:17:07,42.805,6.029,CST-1368DR,6599,9252,15212,0.105,551
2020-03-19T09:20:09,42.805,6.029,CST-1368DR,6599,9252,15212,0.105,551
2020-03-19T09:23:11,42.805,6.029,CST-1368DR,6599,9253,15213,0.105,551
2020-03-19T09:26:13,42.805,6.029,CST-1368DR,6599,9253,15214,0.104,551
2020-03-19T09:29:14,42.805,6.029,CST-1368DR,6599,9253,15213,0.105,551
2020-03-19T09:32:16,42.805,6.029,CST-1368DR,6599,9252,15213,0.105,551
2020-03-19T09:35:18,42.805,6.029,CST-1368DR,6599,9250,15208,0.106,551
2020-03-19T09:38:19,42.805,6.029,CST-1368DR,6599,9253,15213,0.105,551
2020-03-19T09:41:21,42.805,6.029,CST-1368DR,6599,9253,15213,0.105,551
2020-03-19T09:44:23,42.805,6.029,CST-1368DR,6599,9253,15214,0.104,551
2020-03-19T09:47:24,42.805,6.029,CST-1368DR,6599,9252,15213,0.105,551
2020-03-19T09:50:26,42.805,6.029,CST-1368DR,6599,9253,15214,0.104,551
2020-03-19T09:53:28,42.805,6.029,CST-1368DR,6599,9253,15214,0.104,551
2020-03-19T09:56:30,42.805,6.029,CST-1368DR,6599,9253,15213,0.105,551
2020-03-19T09:59:31,42.805,6.029,CST-1368DR,6599,9253,15213,0.105,551
2020-03-19T10:02:33,42.805,6.029,CST-1368DR,6599,9254,15215,0.104,551
2020-03-19T10:05:35,42.805,6.029,CST-1368DR,6599,9252,15212,0.105,551
2020-03-19T10:08:36,42.805,6.029,CST-1368DR,6599,9253,15213,0.105,551
2020-03-19T10:11:38,42.805,6.029,CST-1368DR,6599,9253,15213,0.105,551
2020-03-19T10:14:40,42.805,6.029,CST-1368DR,6599,9252,15212,0.105,551
2020-03-19T10:17:41,42.805,6.029,CST-1368DR,6599,9253,15213,0.105,551
2020-03-19T10:20:43,42.805,6.029,CST-1368DR,6599,9253,15214,0.104,551
2020-03-19T10:23:45,42.805,6.029,CST-1368DR,6599,9254,15215,0.104,551
2020-03-19T10:26:47,42.805,6.029,CST-1368DR,6598,9253,15216,0.104,551
2020-03-19T10:29:48,42.805,6.029,CST-1368DR,6599,9250,15209,0.106,551
2020-03-19T10:32:50,42.805,6.029,CST-1368DR,6599,9253,15213,0.105,551
2020-03-19T10:35:52,42.805,6.029,CST-1368DR,6598,9253,15215,0.104,551
2020-03-19T10:38:53,42.805,6.029,CST-1368DR,6599,9253,15213,0.105,551
2020-03-19T10:41:55,42.805,6.029,CST-1368DR,6599,9252,15212,0.105,551
2020-03-19T10:44:57,42.805,6.029,CST-1368DR,6599,9252,15213,0.105,551
2020-03-19T10:47:59,42.805,6.029,CST-1368DR,6599,9253,15213,0.105,551
2020-03-19T10:51:00,42.805,6.029,CST-1368DR,6599,9252,15213,0.105,551
2020-03-19T10:54:02,42.805,6.029,CST-1368DR,6599,9248,15206,0.106,551
2020-03-19T10:57:04,42.805,6.029,CST-1368DR,6598,9251,15212,0.105,551
2020-03-19T11:00:05,42.805,6.029,CST-1368DR,6598,9251,15213,0.105,551
2020-03-19T11:03:07,42.805,6.029,CST-1368DR,6599,9252,15211,0.105,551
2020-03-19T11:06:09,42.805,6.029,CST-1368DR,6598,9251,15212,0.105,551
2020-03-19T11:09:11,42.805,6.029,CST-1368DR,6598,9253,15215,0.104,551
2020-03-19T11:12:12,42.805,6.029,CST-1368DR,6598,9252,15214,0.104,551
2020-03-19T11:15:14,42.805,6.029,CST-1368DR,6598,9252,15214,0.104,550
2020-03-19T11:18:16,42.805,6.029,CST-1368DR,6598,9251,15213,0.105,551
2020-03-19T11:21:17,42.805,6.029,CST-1368DR,6598,9251,15212,0.105,551
2020-03-19T11:24:19,42.805,6.029,CST-1368DR,6598,9252,15214,0.104,550
2020-03-19T11:27:21,42.805,6.029,CST-1368DR,6598,9251,15213,0.105,551
2020-03-19T11:30:23,42.805,6.029,CST-1368DR,6598,9252,15214,0.104,551
2020-03-19T11:33:24,42.805,6.029,CST-1368DR,6598,9248,15208,0.106,551
2020-03-19T11:36:26,42.805,6.029,CST-1368DR,6598,9251,15212,0.105,551
2020-03-19T11:39:28,42.805,6.029,CST-1368DR,6598,9252,15214,0.104,551
2020-03-19T11:42:29,42.805,6.029,CST-1368DR,6598,9252,15214,0.104,551
2020-03-19T11:45:31,42.805,6.029,CST-1368DR,6598,9252,15214,0.104,551
2020-03-19T11:48:33,42.805,6.029,CST-1368DR,6598,9251,15212,0.105,551
2020-03-19T11:51:34,42.805,6.029,CST-1368DR,6598,9252,15214,0.104,551
2020-03-19T11:54:36,42.805,6.029,CST-1368DR,6598,9251,15212,0.105,551
2020-03-19T11:57:38,42.805,6.029,CST-1368DR,6598,9248,15208,0.106,551
2020-03-19T12:00:40,42.805,6.029,CST-1368DR,6598,9252,15214,0.104,551
2020-03-19T12:03:41,42.805,6.029,CST-1368DR,6598,9250,15211,0.105,550
2020-03-19T12:06:43,42.805,6.029,CST-1368DR,6598,9252,15214,0.104,551
2020-03-19T12:09:45,42.805,6.029,CST-1368DR,6598,9252,15215,0.104,551
2020-03-19T12:12:46,42.805,6.029,CST-1368DR,6598,9251,15213,0.105,551
2020-03-19T12:15:48,42.805,6.029,CST-1368DR,6598,9252,15214,0.104,551
2020-03-19T12:18:50,42.805,6.029,CST-1368DR,6598,9252,15214,0.104,551
2020-03-19T12:21:52,42.805,6.029,CST-1368DR,6598,9252,15214,0.104,551
2020-03-19T12:24:53,42.805,6.029,CST-1368DR,6598,9252,15214,0.104,551
2020-03-19T12:27:55,42.805,6.029,CST-1368DR,6598,9250,15211,0.105,551
2020-03-19T12:30:57,42.805,6.029,CST-1368DR,6598,9249,15209,0.106,551
2020-03-19T12:33:58,42.805,6.029,CST-1368DR,6598,9251,15213,0.105,551
2020-03-19T12:37:00,42.805,6.029,CST-1368DR,6598,9243,15200,0.108,550
2020-03-19T12:40:02,42.805,6.029,CST-1368DR,6598,9252,15214,0.104,551
2020-03-19T12:43:04,42.805,6.029,CST-1368DR,6598,9248,15208,0.106,551
2020-03-19T12:46:05,42.805,6.029,CST-1368DR,6598,9250,15211,0.105,551
2020-03-19T12:49:07,42.805,6.029,CST-1368DR,6598,9250,15210,0.105,550
2020-03-19T12:52:09,42.805,6.029,CST-1368DR,6598,9251,15212,0.105,551
2020-03-19T12:55:10,42.805,6.029,CST-1368DR,6598,9251,15212,0.105,551
2020-03-19T12:58:12,42.805,6.029,CST-1368DR,6598,9247,15207,0.106,551
2020-03-19T13:01:14,42.805,6.029,CST-1368DR,6598,9251,15212,0.105,551
2020-03-19T13:04:15,42.805,6.029,CST-1368DR,6598,9250,15211,0.105,551
2020-03-19T13:07:17,42.805,6.029,CST-1368DR,6598,9251,15212,0.105,551
2020-03-19T13:10:19,42.805,6.029,CST-1368DR,6598,9250,15210,0.105,551
2020-03-19T13:13:21,42.805,6.029,CST-1368DR,6598,9252,15214,0.104,551
2020-03-19T13:16:22,42.805,6.029,CST-1368DR,6598,9249,15209,0.106,551
2020-03-19T13:19:24,42.805,6.029,CST-1368DR,6598,9251,15212,0.105,551
2020-03-19T13:22:26,42.805,6.029,CST-1368DR,6598,9250,15211,0.105,551
2020-03-19T13:25:27,42.805,6.029,CST-1368DR,6598,9250,15211,0.105,551
2020-03-19T13:28:29,42.805,6.029,CST-1368DR,6598,9251,15212,0.105,551
2020-03-19T13:31:31,42.805,6.029,CST-1368DR,6598,9249,15210,0.105,550
2020-03-19T13:34:33,42.805,6.029,CST-1368DR,6598,9251,15213,0.105,551
2020-03-19T13:37:34,42.805,6.029,CST-1368DR,6598,9251,15212,0.105,551
2020-03-19T13:40:36,42.805,6.029,CST-1368DR,6598,9251,15212,0.105,551
2020-03-19T13:43:38,42.805,6.029,CST-1368DR,6598,9248,15208,0.106,551
2020-03-19T13:46:39,42.805,6.029,CST-1368DR,6598,9250,15210,0.105,551
2020-03-19T13:49:41,42.805,6.029,CST-1368DR,6598,9250,15210,0.105,551
2020-03-19T13:52:43,42.805,6.029,CST-1368DR,6598,9249,15210,0.105,550
2020-03-19T13:55:44,42.805,6.029,CST-1368DR,6598,9243,15200,0.108,551
2020-03-19T13:58:46,42.805,6.029,CST-1368DR,6598,9250,15211,0.105,551
2020-03-19T14:01:48,42.805,6.029,CST-1368DR,6598,9249,15209,0.106,551
2020-03-19T14:04:50,42.805,6.029,CST-1368DR,6598,9249,15210,0.105,550
2020-03-19T14:07:51,42.805,6.029,CST-1368DR,6598,9251,15212,0.105,551
2020-03-19T14:10:53,42.805,6.029,CST-1368DR,6598,9249,15209,0.106,551
2020-03-19T14:13:55,42.805,6.029,CST-1368DR,6598,9248,15207,0.106,551
2020-03-19T14:16:56,42.805,6.029,CST-1368DR,6598,9249,15209,0.106,551
2020-03-19T14:19:58,42.805,6.029,CST-1368DR,6598,9249,15209,0.106,551
2020-03-19T14:23:00,42.805,6.029,CST-1368DR,6598,9251,15213,0.105,551
2020-03-19T14:26:01,42.805,6.029,CST-1368DR,6598,9249,15210,0.105,551
2020-03-19T14:29:03,42.805,6.029,CST-1368DR,6598,9252,15214,0.104,551
2020-03-19T14:32:05,42.805,6.029,CST-1368DR,6598,9250,15210,0.105,551
2020-03-19T14:35:07,42.805,6.029,CST-1368DR,6598,9251,15212,0.105,551
2020-03-19T14:38:08,42.805,6.029,CST-1368DR,6598,9246,15205,0.107,551
2020-03-19T14:41:10,42.805,6.029,CST-1368DR,6598,9251,15212,0.105,551
2020-03-19T14:44:12,42.805,6.029,CST-1368DR,6598,9251,15213,0.105,551
2020-03-19T14:47:13,42.805,6.029,CST-1368DR,6597,9250,15213,0.105,550
2020-03-19T14:50:15,42.805,6.029,CST-1368DR,6597,9248,15210,0.105,551
2020-03-19T14:53:17,42.805,6.029,CST-1368DR,6597,9250,15212,0.105,551
2020-03-19T14:56:18,42.805,6.029,CST-1368DR,6598,9248,15208,0.106,551
2020-03-19T14:59:20,42.805,6.029,CST-1368DR,6598,9249,15209,0.106,551
2020-03-19T15:02:22,42.805,6.029,CST-1368DR,6597,9242,15200,0.108,550
2020-03-19T15:05:23,42.805,6.029,CST-1368DR,6597,9250,15213,0.105,551
2020-03-19T15:08:25,42.805,6.029,CST-1368DR,6597,9248,15210,0.105,550
2020-03-19T15:11:27,42.805,6.029,CST-1368DR,6597,9250,15213,0.105,551
2020-03-19T15:14:29,42.805,6.029,CST-1368DR,6598,9251,15212,0.105,551
2020-03-19T15:35:06,42.805,6.029,CST-1368DR,6597,9251,15215,0.104,551
2020-03-19T15:38:08,42.805,6.029,CST-1368DR,6598,9250,15211,0.105,551
2020-03-19T15:41:10,42.805,6.029,CST-1368DR,6597,9250,15212,0.105,551
2020-03-19T15:44:12,42.805,6.029,CST-1368DR,6598,9250,15210,0.105,551
2020-03-19T15:47:13,42.805,6.029,CST-1368DR,6598,9249,15210,0.105,551
2020-03-19T15:50:15,42.805,6.029,CST-1368DR,6598,9250,15210,0.105,551
2020-03-19T15:53:17,42.805,6.029,CST-1368DR,6597,9250,15212,0.105,551
2020-03-19T15:56:18,42.805,6.029,CST-1368DR,6598,9251,15213,0.105,551
2020-03-19T15:59:20,42.805,6.029,CST-1368DR,6597,9249,15211,0.105,551
2020-03-19T16:02:22,42.805,6.029,CST-1368DR,6597,9250,15213,0.105,551
2020-03-19T16:05:23,42.805,6.029,CST-1368DR,6597,9249,15211,0.105,551
2020-03-19T16:08:25,42.805,6.029,CST-1368DR,6597,9250,15213,0.105,550
2020-03-19T16:11:27,42.805,6.029,CST-1368DR,6597,9249,15211,0.105,551
2020-03-19T16:14:29,42.805,6.029,CST-1368DR,6597,9249,15211,0.105,551
2020-03-19T16:17:30,42.805,6.029,CST-1368DR,6598,9249,15209,0.106,551
2020-03-19T16:20:32,42.805,6.029,CST-1368DR,6598,9250,15211,0.105,551
2020-03-19T16:23:34,42.805,6.029,CST-1368DR,6597,9248,15210,0.105,551
2020-03-19T16:26:35,42.805,6.029,CST-1368DR,6597,9251,15214,0.104,551
2020-03-19T16:29:37,42.805,6.029,CST-1368DR,6597,9251,15214,0.104,551
2020-03-19T16:32:39,42.805,6.029,CST-1368DR,6597,9252,15216,0.104,551
2020-03-19T16:35:40,42.805,6.029,CST-1368DR,6597,9250,15213,0.105,551
2020-03-19T16:38:42,42.805,6.029,CST-1368DR,6597,9249,15212,0.105,551
2020-03-19T16:41:44,42.805,6.029,CST-1368DR,6597,9249,15211,0.105,551
2020-03-19T16:44:45,42.805,6.029,CST-1368DR,6597,9249,15212,0.105,551
2020-03-19T16:47:47,42.805,6.029,CST-1368DR,6597,9249,15211,0.105,551
2020-03-19T16:50:49,42.805,6.029,CST-1368DR,6597,9247,15209,0.106,551
2020-03-19T16:53:51,42.805,6.029,CST-1368DR,6597,9250,15212,0.105,551
2020-03-19T16:56:52,42.805,6.029,CST-1368DR,6597,9249,15212,0.105,551
2020-03-19T16:59:54,42.805,6.029,CST-1368DR,6597,9250,15212,0.105,551
2020-03-19T17:02:56,42.805,6.029,CST-1368DR,6597,9248,15210,0.105,551
2020-03-19T17:05:57,42.805,6.029,CST-1368DR,6597,9248,15210,0.105,551
2020-03-19T17:08:59,42.805,6.029,CST-1368DR,6597,9250,15212,0.105,551
2020-03-19T17:12:01,42.805,6.029,CST-1368DR,6597,9250,15212,0.105,551